Regional Weather Roundup
Issued by NWS

Home | Current Version | Previous Version | Text Only | Print | Product List | Glossary On
Versions: 1 2 3 4 5 6 7 8 9 10 11 12 13 14 15 16 17 18 19 20 21 22 23 24 25 26 27 28
000
ASUS46 KPQR 270110
RWROR

OREGON REGIONAL WEATHER ROUNDUP
NATIONAL WEATHER SERVICE PORTLAND OR
600 PM PDT THU APR 26 2018

NOTE: "FAIR" INDICATES FEW OR NO CLOUDS BELOW 12,000 FEET WITH
NO SIGNIFICANT WEATHER AND/OR OBSTRUCTIONS TO VISIBILITY.

ORZ001>013-270200-
NORTHWEST OREGON


CITY           SKY/WX    TMP DP  RH WIND       PRES   REMARKS
ASTORIA        CLOUDY    53  48  83 SW9       29.98F
TILLAMOOK      CLOUDY    52  50  93 SW7       30.00F
NEWPORT        CLOUDY    52  46  82 SW3       30.02F
PORTLAND       MOSUNNY   84  50  30 W10       29.81F
VANCOUVER WA   SUNNY     83  53  35 W7        29.80F
SCAPPOOSE      SUNNY     79  50  36 N10       29.81F
HILLSBORO      SUNNY     85  48  27 N8        29.81F
AURORA         MOSUNNY   75  55  49 W10       29.85F
MCMINNVILLE    MOSUNNY   63  54  72 SW17      29.84F
SALEM          PTSUNNY   67  51  56 W10       29.85F
CORVALLIS      PTSUNNY   57  50  77 NW23G29   29.90S
EUGENE         PTSUNNY   59  51  75 SW18      29.92R
$$

ORZ021-028-270200-
SOUTHWEST OREGON


CITY           SKY/WX    TMP DP  RH WIND       PRES   REMARKS
NORTH BEND     CLOUDY    52  48  86 W9        30.02F
BROOKINGS      CLOUDY    50  47  89 VRB3      30.02S
ROSEBURG       PTSUNNY   62  48  60 NW12      29.92R
SEXTON SUMMIT  MOSUNNY   60  50  69 NW7G20    29.92F
GRANTS PASS    FAIR      77  50  38 NW12G22   29.85R
MEDFORD        MOSUNNY   85  39  19 NW13      29.75F
$$

ORZ014>016-041-270200-
COLUMBIA GORGE


CITY           SKY/WX    TMP DP  RH WIND       PRES   REMARKS
TROUTDALE      SUNNY     84  43  23 VRB5      29.80F
HOOD RIVER     SUNNY     79  36  21 CALM      29.89F
THE DALLES     SUNNY     84  35  17 E9        29.88F
$$

ORZ029>031-041-044-049-050-061>064-502-503-505>511-270200-
EASTERN OREGON


CITY           SKY/WX    TMP DP  RH WIND       PRES   REMARKS
MADRAS         SUNNY     75  43  31 N18       29.93F
REDMOND        SUNNY     81  44  27 N17       29.90F
BEND           MOSUNNY   79  41  25 NW16      29.93F
PRINEVILLE     MOSUNNY   84  27  12 SE13      29.89F
KLAMATH FALLS  PTSUNNY   76  41  28 SE7       29.90F
LAKEVIEW       PTSUNNY   79  33  19 CALM      29.97F
HERMISTON      SUNNY     82  44  26 E5        29.91F
PENDLETON      SUNNY     77  45  32 NE8       29.94F
JOHN DAY       SUNNY     78  34  20 E13       29.98F
MEACHAM        FAIR      70  44  39 VRB3      30.04F
LA GRANDE      SUNNY     78  36  21 S10       29.98F
BAKER CITY     SUNNY     76  30  18 E10       30.03F
BURNS          SUNNY     73  23  15 NE16      30.03F
ROME             N/A     82   5   5 E5        29.96F
ONTARIO        SUNNY     81  34  18 NE6       29.98F
$$




USA.gov is the U.S. government's official web portal to all federal, state and local government web resources and services.